"Time","A4260517","A4260517"
"and",100.00,3000.00
"Date","Water Level (m)","Cond @25 degC(uS/cm)"
"","Mean","Mean"
09:00:00 18/12/1986,,
09:00:00 19/12/1986,,299.349
09:00:00 20/12/1986,,307.57
09:00:00 21/12/1986,,313.915
09:00:00 22/12/1986,,322.961
09:00:00 23/12/1986,,319.637
09:00:00 24/12/1986,,330.165
09:00:00 25/12/1986,,346.843
09:00:00 26/12/1986,,349.599
09:00:00 27/12/1986,,346.907
09:00:00 28/12/1986,,358.433
09:00:00 29/12/1986,,367.022
09:00:00 30/12/1986,,414.399
09:00:00 31/12/1986,,427.076
09:00:00 01/01/1987,,427.427
09:00:00 02/01/1987,,434.312
09:00:00 03/01/1987,,429.775
09:00:00 04/01/1987,,421.548
09:00:00 05/01/1987,,399.656
09:00:00 06/01/1987,,400.44
09:00:00 07/01/1987,,409.573
09:00:00 08/01/1987,,381.224
09:00:00 09/01/1987,,371.869
09:00:00 10/01/1987,,356.696
09:00:00 11/01/1987,,343.378
09:00:00 12/01/1987,,329.601
09:00:00 13/01/1987,,330.307
09:00:00 14/01/1987,,
09:00:00 15/01/1987,,342.775
09:00:00 16/01/1987,,
09:00:00 17/01/1987,,
09:00:00 18/01/1987,,
09:00:00 19/01/1987,,362.96
09:00:00 20/01/1987,,363.982
09:00:00 21/01/1987,,
09:00:00 22/01/1987,,370.38
09:00:00 23/01/1987,,
09:00:00 24/01/1987,,386.969
09:00:00 25/01/1987,,
09:00:00 26/01/1987,,389.748
09:00:00 27/01/1987,,
09:00:00 28/01/1987,,403.731
09:00:00 29/01/1987,,413.521
09:00:00 30/01/1987,,
09:00:00 31/01/1987,,
09:00:00 01/02/1987,,
09:00:00 02/02/1987,,427.704
09:00:00 03/02/1987,,
09:00:00 04/02/1987,,
09:00:00 05/02/1987,,450.815
09:00:00 06/02/1987,,
09:00:00 07/02/1987,,
09:00:00 08/02/1987,,441.834
09:00:00 09/02/1987,,
09:00:00 10/02/1987,,
09:00:00 11/02/1987,,455.552
09:00:00 12/02/1987,,463.023
09:00:00 13/02/1987,,464.668
09:00:00 14/02/1987,,457.214
09:00:00 15/02/1987,,453.465
09:00:00 16/02/1987,,456.796
09:00:00 17/02/1987,,466.495
09:00:00 18/02/1987,,475.24
09:00:00 19/02/1987,,474.753
09:00:00 20/02/1987,,470.918
09:00:00 21/02/1987,,469.47
09:00:00 22/02/1987,,476.028
09:00:00 23/02/1987,,480.378
09:00:00 24/02/1987,,479.012
09:00:00 25/02/1987,,486.56
09:00:00 26/02/1987,,485.97
09:00:00 27/02/1987,,479.998
09:00:00 28/02/1987,,478.917
09:00:00 01/03/1987,,476.919
09:00:00 02/03/1987,,476.543
09:00:00 03/03/1987,,478.615
09:00:00 04/03/1987,,475.676
09:00:00 05/03/1987,,473.622
09:00:00 06/03/1987,,474.997
09:00:00 07/03/1987,,473.385
09:00:00 08/03/1987,,476.872
09:00:00 09/03/1987,,484.231
09:00:00 10/03/1987,,478.348
09:00:00 11/03/1987,,471.549
09:00:00 12/03/1987,,477.411
09:00:00 13/03/1987,,483.625
09:00:00 14/03/1987,,486.616
09:00:00 15/03/1987,,484.214
09:00:00 16/03/1987,,480.459
09:00:00 17/03/1987,,480.01
09:00:00 18/03/1987,,485.945
09:00:00 19/03/1987,,488.844
09:00:00 20/03/1987,,491.336
09:00:00 21/03/1987,,500.952
09:00:00 22/03/1987,,508.161
09:00:00 23/03/1987,,508.916
09:00:00 24/03/1987,,506.38
09:00:00 25/03/1987,,506.614
09:00:00 26/03/1987,,502.594
09:00:00 27/03/1987,,499.082
09:00:00 28/03/1987,,500.003
09:00:00 29/03/1987,,502.175
09:00:00 30/03/1987,,511.593
09:00:00 31/03/1987,,531.512
09:00:00 01/04/1987,,538.121
09:00:00 02/04/1987,,526.427
09:00:00 03/04/1987,,518.918
09:00:00 04/04/1987,,518.003
09:00:00 05/04/1987,,520.168
09:00:00 06/04/1987,,524.708
09:00:00 07/04/1987,,529.712
09:00:00 08/04/1987,,536.876
09:00:00 09/04/1987,,546.411
09:00:00 10/04/1987,,553.172
09:00:00 11/04/1987,,560.417
09:00:00 12/04/1987,,570.411
09:00:00 13/04/1987,,576.641
09:00:00 14/04/1987,,589.919
09:00:00 15/04/1987,,603.314
09:00:00 16/04/1987,,599.883
09:00:00 17/04/1987,,596.989
09:00:00 18/04/1987,,599.334
09:00:00 19/04/1987,,602.485
09:00:00 20/04/1987,,599.336
09:00:00 21/04/1987,,605.22
09:00:00 22/04/1987,,607.889
09:00:00 23/04/1987,,600.974
09:00:00 24/04/1987,,595.227
09:00:00 25/04/1987,,581.564
09:00:00 26/04/1987,,575.492
09:00:00 27/04/1987,,572.457
09:00:00 28/04/1987,,570.727
09:00:00 29/04/1987,,574.657
09:00:00 30/04/1987,,587.507
09:00:00 01/05/1987,,589.738
09:00:00 02/05/1987,,592.512
09:00:00 03/05/1987,,586.742
09:00:00 04/05/1987,,581.304
09:00:00 05/05/1987,,576.662
09:00:00 06/05/1987,,573.456
09:00:00 07/05/1987,,572.878
09:00:00 08/05/1987,,575.69
09:00:00 09/05/1987,,579.903
09:00:00 10/05/1987,,579.527
09:00:00 11/05/1987,,579.383
09:00:00 12/05/1987,,577.438
09:00:00 13/05/1987,,577.881
09:00:00 14/05/1987,,588.942
09:00:00 15/05/1987,,600.122
09:00:00 16/05/1987,,610.201
09:00:00 17/05/1987,,613.888
09:00:00 18/05/1987,,613.331
09:00:00 19/05/1987,,617.391
09:00:00 20/05/1987,,625.111
09:00:00 21/05/1987,,627.448
09:00:00 22/05/1987,,628.857
09:00:00 23/05/1987,,633.406
09:00:00 24/05/1987,,641.398
09:00:00 25/05/1987,,645.957
09:00:00 26/05/1987,,646.388
09:00:00 27/05/1987,,649.105
09:00:00 28/05/1987,,651.129
09:00:00 29/05/1987,,653.805
09:00:00 30/05/1987,,655.378
09:00:00 31/05/1987,,655.886
09:00:00 01/06/1987,,655.28
09:00:00 02/06/1987,,660.551
09:00:00 03/06/1987,,667.096
09:00:00 04/06/1987,,671.001
09:00:00 05/06/1987,,670.504
09:00:00 06/06/1987,,673.093
09:00:00 07/06/1987,,673.483
09:00:00 08/06/1987,,668.541
09:00:00 09/06/1987,,665.636
09:00:00 10/06/1987,,670.044
09:00:00 11/06/1987,,676.527
09:00:00 12/06/1987,,677.859
09:00:00 13/06/1987,,677.285
09:00:00 14/06/1987,,679.903
09:00:00 15/06/1987,,685.338
09:00:00 16/06/1987,,691.583
09:00:00 17/06/1987,,690.368
09:00:00 18/06/1987,,689.173
09:00:00 19/06/1987,,682.03
09:00:00 20/06/1987,,673.269
09:00:00 21/06/1987,,673.117
09:00:00 22/06/1987,,673.612
09:00:00 23/06/1987,,672.582
09:00:00 24/06/1987,,675.226
09:00:00 25/06/1987,,681.865
09:00:00 26/06/1987,,693.393
09:00:00 27/06/1987,,695.49
09:00:00 28/06/1987,,693.632
09:00:00 29/06/1987,,693.141
09:00:00 30/06/1987,,695.689
09:00:00 01/07/1987,,701.468
09:00:00 02/07/1987,,695.709
09:00:00 03/07/1987,,689.808
09:00:00 04/07/1987,,696.384
09:00:00 05/07/1987,,694.242
09:00:00 06/07/1987,,672.805
09:00:00 07/07/1987,,653.823
09:00:00 08/07/1987,,663.036
09:00:00 09/07/1987,,670.774
09:00:00 10/07/1987,,673.305
09:00:00 11/07/1987,,644.001
09:00:00 12/07/1987,,638.627
09:00:00 13/07/1987,,629.818
09:00:00 14/07/1987,,617.261
09:00:00 15/07/1987,,600.539
09:00:00 16/07/1987,,580.954
09:00:00 17/07/1987,,553.682
09:00:00 18/07/1987,,538.856
09:00:00 19/07/1987,,507.798
09:00:00 20/07/1987,,494.464
09:00:00 21/07/1987,,484.331
09:00:00 22/07/1987,,455.11
09:00:00 23/07/1987,,437.181
09:00:00 24/07/1987,,450.383
09:00:00 25/07/1987,,502.441
09:00:00 26/07/1987,,549.398
09:00:00 27/07/1987,,534.63
09:00:00 28/07/1987,,516.188
09:00:00 29/07/1987,,485.568
09:00:00 30/07/1987,,464.835
09:00:00 31/07/1987,,464.565
09:00:00 01/08/1987,,481.9
09:00:00 02/08/1987,,495.31
09:00:00 03/08/1987,,490.288
09:00:00 04/08/1987,,469.446
09:00:00 05/08/1987,,455.378
09:00:00 06/08/1987,,440.566
09:00:00 07/08/1987,,431.683
09:00:00 08/08/1987,,439.849
09:00:00 09/08/1987,,430.414
09:00:00 10/08/1987,,420.564
09:00:00 11/08/1987,,399.652
09:00:00 12/08/1987,,377.268
09:00:00 13/08/1987,,366.113
09:00:00 14/08/1987,,372.16
09:00:00 15/08/1987,,344.039
09:00:00 16/08/1987,,329.986
09:00:00 17/08/1987,,353.42
09:00:00 18/08/1987,,398.846
09:00:00 19/08/1987,,455.672
09:00:00 20/08/1987,,478.557
09:00:00 21/08/1987,,467.762
09:00:00 22/08/1987,,456.293
09:00:00 23/08/1987,,426.445
09:00:00 24/08/1987,,400.726
09:00:00 25/08/1987,,410.893
09:00:00 26/08/1987,,422.713
09:00:00 27/08/1987,,418.301
09:00:00 28/08/1987,,405.109
09:00:00 29/08/1987,,390.95
09:00:00 30/08/1987,,390.311
09:00:00 31/08/1987,,388.855
09:00:00 01/09/1987,,385.127
09:00:00 02/09/1987,,367.661
09:00:00 03/09/1987,,348.55
09:00:00 04/09/1987,,337.262
09:00:00 05/09/1987,,333.782
09:00:00 06/09/1987,,325.238
09:00:00 07/09/1987,,323.806
09:00:00 08/09/1987,,331.602
09:00:00 09/09/1987,,331.463
09:00:00 10/09/1987,,329.042
09:00:00 11/09/1987,,332.274
09:00:00 12/09/1987,,337.943
09:00:00 13/09/1987,,344.588
09:00:00 14/09/1987,,347.283
09:00:00 15/09/1987,,352.868
09:00:00 16/09/1987,,361.339
09:00:00 17/09/1987,,358.464
09:00:00 18/09/1987,,347.9
09:00:00 19/09/1987,,349.646
09:00:00 20/09/1987,,347.203
09:00:00 21/09/1987,,348.106
09:00:00 22/09/1987,,363.869
09:00:00 23/09/1987,,384.424
09:00:00 24/09/1987,,399.226
09:00:00 25/09/1987,,402.674
09:00:00 26/09/1987,,395.305
09:00:00 27/09/1987,,395.277
09:00:00 28/09/1987,,393.34
09:00:00 29/09/1987,,393.904
09:00:00 30/09/1987,,406.824
09:00:00 01/10/1987,,428.139
09:00:00 02/10/1987,,431.017
09:00:00 03/10/1987,,415.532
09:00:00 04/10/1987,,424.278
09:00:00 05/10/1987,,438.399
09:00:00 06/10/1987,,447.12
09:00:00 07/10/1987,,466.435
09:00:00 08/10/1987,,484.915
09:00:00 09/10/1987,,522.245
09:00:00 10/10/1987,,528.567
09:00:00 11/10/1987,,521.26
09:00:00 12/10/1987,,
09:00:00 13/10/1987,,
09:00:00 14/10/1987,,
09:00:00 15/10/1987,,
09:00:00 16/10/1987,,498.442
09:00:00 17/10/1987,,488.0
09:00:00 18/10/1987,,
09:00:00 19/10/1987,,
09:00:00 20/10/1987,,
09:00:00 21/10/1987,,
09:00:00 22/10/1987,,488.824
09:00:00 23/10/1987,,483.397
09:00:00 24/10/1987,,476.636
09:00:00 25/10/1987,,501.179
09:00:00 26/10/1987,,521.921
09:00:00 27/10/1987,,530.809
09:00:00 28/10/1987,,520.56
09:00:00 29/10/1987,,520.744
09:00:00 30/10/1987,,533.186
09:00:00 31/10/1987,,537.63
09:00:00 01/11/1987,,
09:00:00 02/11/1987,,
09:00:00 03/11/1987,,
09:00:00 04/11/1987,,
09:00:00 05/11/1987,,
09:00:00 06/11/1987,,
09:00:00 07/11/1987,,
09:00:00 08/11/1987,,578.069
09:00:00 09/11/1987,,573.114
09:00:00 10/11/1987,,566.587
09:00:00 11/11/1987,,585.874
09:00:00 12/11/1987,,586.981
09:00:00 13/11/1987,,582.529
09:00:00 14/11/1987,,576.098
09:00:00 15/11/1987,,569.993
09:00:00 16/11/1987,,562.828
09:00:00 17/11/1987,,549.549
09:00:00 18/11/1987,,545.355
09:00:00 19/11/1987,,551.189
09:00:00 20/11/1987,,557.575
09:00:00 21/11/1987,,582.648
09:00:00 22/11/1987,,583.524
09:00:00 23/11/1987,,581.359
09:00:00 24/11/1987,,573.827
09:00:00 25/11/1987,,565.772
09:00:00 26/11/1987,,580.654
09:00:00 27/11/1987,,604.468
09:00:00 28/11/1987,,603.875
09:00:00 29/11/1987,,605.335
09:00:00 30/11/1987,,609.29
09:00:00 01/12/1987,,593.746
09:00:00 02/12/1987,,595.854
09:00:00 03/12/1987,,609.028
09:00:00 04/12/1987,,621.059
09:00:00 05/12/1987,,603.236
09:00:00 06/12/1987,,607.796
09:00:00 07/12/1987,,623.282
09:00:00 08/12/1987,,612.305
09:00:00 09/12/1987,,599.494
09:00:00 10/12/1987,,593.973
09:00:00 11/12/1987,,600.999
09:00:00 12/12/1987,,611.792
09:00:00 13/12/1987,,619.492
09:00:00 14/12/1987,,630.409
09:00:00 15/12/1987,,638.53
09:00:00 16/12/1987,,641.581
09:00:00 17/12/1987,,632.031
09:00:00 18/12/1987,,645.139
09:00:00 19/12/1987,,653.225
09:00:00 20/12/1987,,653.461
09:00:00 21/12/1987,,644.156
09:00:00 22/12/1987,,631.361
09:00:00 23/12/1987,,627.472
09:00:00 24/12/1987,,625.785
09:00:00 25/12/1987,,620.256
09:00:00 26/12/1987,,625.253
09:00:00 27/12/1987,,624.718
09:00:00 28/12/1987,,607.327
09:00:00 29/12/1987,,598.96
09:00:00 30/12/1987,,608.09
09:00:00 31/12/1987,,617.121
09:00:00 01/01/1988,,610.648
09:00:00 02/01/1988,,604.123
09:00:00 03/01/1988,,606.896
09:00:00 04/01/1988,,600.401
09:00:00 05/01/1988,,600.704
09:00:00 06/01/1988,,597.785
09:00:00 07/01/1988,,590.044
09:00:00 08/01/1988,,596.373
09:00:00 09/01/1988,,597.064
09:00:00 10/01/1988,,586.816
09:00:00 11/01/1988,,585.265
09:00:00 12/01/1988,,588.449
09:00:00 13/01/1988,,610.385
09:00:00 14/01/1988,,614.123
09:00:00 15/01/1988,,618.387
09:00:00 16/01/1988,,618.235
09:00:00 17/01/1988,,627.528
09:00:00 18/01/1988,,634.69
09:00:00 19/01/1988,,641.505
09:00:00 20/01/1988,,637.805
09:00:00 21/01/1988,,630.493
09:00:00 22/01/1988,,637.367
09:00:00 23/01/1988,,644.367
09:00:00 24/01/1988,,647.091
09:00:00 25/01/1988,,643.57
09:00:00 26/01/1988,,643.014
09:00:00 27/01/1988,,
09:00:00 28/01/1988,,
09:00:00 29/01/1988,,
09:00:00 30/01/1988,,
09:00:00 31/01/1988,,
09:00:00 01/02/1988,,
09:00:00 02/02/1988,,627.259
09:00:00 03/02/1988,,
09:00:00 04/02/1988,,
09:00:00 05/02/1988,,
09:00:00 06/02/1988,,
09:00:00 07/02/1988,,
09:00:00 08/02/1988,,
09:00:00 09/02/1988,,635.525
09:00:00 10/02/1988,,
09:00:00 11/02/1988,,
09:00:00 12/02/1988,,
09:00:00 13/02/1988,,
09:00:00 14/02/1988,,628.822
09:00:00 15/02/1988,,633.469
09:00:00 16/02/1988,,635.159
09:00:00 17/02/1988,,
09:00:00 18/02/1988,,
09:00:00 19/02/1988,,
09:00:00 20/02/1988,,
09:00:00 21/02/1988,,636.314
09:00:00 22/02/1988,,630.296
09:00:00 23/02/1988,,624.808
09:00:00 24/02/1988,,627.369
09:00:00 25/02/1988,,
09:00:00 26/02/1988,,
09:00:00 27/02/1988,,
09:00:00 28/02/1988,,
09:00:00 29/02/1988,,
09:00:00 01/03/1988,,
09:00:00 02/03/1988,,
09:00:00 03/03/1988,,632.152
09:00:00 04/03/1988,,
09:00:00 05/03/1988,,
09:00:00 06/03/1988,,
09:00:00 07/03/1988,,
09:00:00 08/03/1988,,620.045
09:00:00 09/03/1988,,623.768
09:00:00 10/03/1988,,629.437
09:00:00 11/03/1988,,
09:00:00 12/03/1988,,
09:00:00 13/03/1988,,
09:00:00 14/03/1988,,631.616
09:00:00 15/03/1988,,
09:00:00 16/03/1988,,
09:00:00 17/03/1988,,649.855
09:00:00 18/03/1988,,
09:00:00 19/03/1988,,
09:00:00 20/03/1988,,631.117
09:00:00 21/03/1988,,628.091
09:00:00 22/03/1988,,
09:00:00 23/03/1988,,
09:00:00 24/03/1988,,600.746
09:00:00 25/03/1988,,599.552
09:00:00 26/03/1988,,
09:00:00 27/03/1988,,597.591
09:00:00 28/03/1988,,613.636
09:00:00 29/03/1988,,
09:00:00 30/03/1988,,
09:00:00 31/03/1988,,618.538
09:00:00 01/04/1988,,
09:00:00 02/04/1988,,
09:00:00 03/04/1988,,
09:00:00 04/04/1988,,
09:00:00 05/04/1988,,
09:00:00 06/04/1988,,
09:00:00 07/04/1988,,
09:00:00 08/04/1988,,612.693
09:00:00 09/04/1988,,615.464
09:00:00 10/04/1988,,
09:00:00 11/04/1988,,
09:00:00 12/04/1988,,
09:00:00 13/04/1988,,
09:00:00 14/04/1988,,
09:00:00 15/04/1988,,
09:00:00 16/04/1988,,
09:00:00 17/04/1988,,
09:00:00 18/04/1988,,
09:00:00 19/04/1988,,
09:00:00 20/04/1988,,
09:00:00 21/04/1988,,
09:00:00 22/04/1988,,
09:00:00 23/04/1988,,
09:00:00 24/04/1988,,
09:00:00 25/04/1988,,
09:00:00 26/04/1988,,
09:00:00 27/04/1988,,
09:00:00 28/04/1988,,
09:00:00 29/04/1988,,
09:00:00 30/04/1988,,
09:00:00 01/05/1988,,
09:00:00 02/05/1988,,
09:00:00 03/05/1988,,
09:00:00 04/05/1988,,
09:00:00 05/05/1988,,
09:00:00 06/05/1988,,
09:00:00 07/05/1988,,
09:00:00 08/05/1988,,
09:00:00 09/05/1988,,
09:00:00 10/05/1988,,
09:00:00 11/05/1988,,
09:00:00 12/05/1988,,
09:00:00 13/05/1988,,
09:00:00 14/05/1988,,676.141
09:00:00 15/05/1988,,679.478
09:00:00 16/05/1988,,679.529
09:00:00 17/05/1988,,680.537
09:00:00 18/05/1988,,684.21
09:00:00 19/05/1988,,687.537
09:00:00 20/05/1988,,
09:00:00 21/05/1988,,
09:00:00 22/05/1988,,681.406
09:00:00 23/05/1988,,
09:00:00 24/05/1988,,686.072
09:00:00 25/05/1988,,
09:00:00 26/05/1988,,705.969
09:00:00 27/05/1988,,
09:00:00 28/05/1988,,
09:00:00 29/05/1988,,713.674
09:00:00 30/05/1988,,
09:00:00 31/05/1988,,713.698
09:00:00 01/06/1988,,710.731
09:00:00 02/06/1988,,705.649
09:00:00 03/06/1988,,710.344
09:00:00 04/06/1988,,716.163
09:00:00 05/06/1988,,717.382
09:00:00 06/06/1988,,702.756
09:00:00 07/06/1988,,703.426
09:00:00 08/06/1988,,704.375
09:00:00 09/06/1988,,
09:00:00 10/06/1988,,
09:00:00 11/06/1988,,605.482
09:00:00 12/06/1988,,
09:00:00 13/06/1988,,
09:00:00 14/06/1988,,494.018
09:00:00 15/06/1988,,468.726
09:00:00 16/06/1988,,463.928
09:00:00 17/06/1988,,
09:00:00 18/06/1988,,
09:00:00 19/06/1988,,
09:00:00 20/06/1988,,613.663
09:00:00 21/06/1988,,
09:00:00 22/06/1988,,611.652
09:00:00 23/06/1988,,
09:00:00 24/06/1988,,580.414
09:00:00 25/06/1988,,
09:00:00 26/06/1988,,506.148
09:00:00 27/06/1988,,506.367
09:00:00 28/06/1988,,
09:00:00 29/06/1988,,451.549
09:00:00 30/06/1988,,
09:00:00 01/07/1988,,410.649
09:00:00 02/07/1988,,
09:00:00 03/07/1988,,
09:00:00 04/07/1988,,458.382
09:00:00 05/07/1988,,474.18
09:00:00 06/07/1988,,
09:00:00 07/07/1988,,
09:00:00 08/07/1988,,464.982
09:00:00 09/07/1988,,446.145
09:00:00 10/07/1988,,434.795
09:00:00 11/07/1988,,432.03
09:00:00 12/07/1988,,429.299
09:00:00 13/07/1988,,431.801
09:00:00 14/07/1988,,452.975
09:00:00 15/07/1988,,476.573
09:00:00 16/07/1988,,475.424
09:00:00 17/07/1988,,474.538
09:00:00 18/07/1988,,486.773
09:00:00 19/07/1988,,527.12
09:00:00 20/07/1988,,577.401
09:00:00 21/07/1988,,562.663
09:00:00 22/07/1988,,547.205
09:00:00 23/07/1988,,537.621
09:00:00 24/07/1988,,511.269
09:00:00 25/07/1988,,499.02
09:00:00 26/07/1988,,467.396
09:00:00 27/07/1988,,447.204
09:00:00 28/07/1988,,463.472
09:00:00 29/07/1988,,451.422
09:00:00 30/07/1988,,436.493
09:00:00 31/07/1988,,430.394
09:00:00 01/08/1988,,430.905
09:00:00 02/08/1988,,448.697
09:00:00 03/08/1988,,472.493
09:00:00 04/08/1988,,490.193
09:00:00 05/08/1988,,505.338
09:00:00 06/08/1988,,518.7
09:00:00 07/08/1988,,531.611
09:00:00 08/08/1988,,528.562
09:00:00 09/08/1988,,535.416
09:00:00 10/08/1988,,549.479
09:00:00 11/08/1988,,546.052
09:00:00 12/08/1988,,526.83
09:00:00 13/08/1988,,508.392
09:00:00 14/08/1988,,496.075
09:00:00 15/08/1988,,492.573
09:00:00 16/08/1988,,483.228
09:00:00 17/08/1988,,476.183
09:00:00 18/08/1988,,473.99
09:00:00 19/08/1988,,495.373
09:00:00 20/08/1988,,487.407
09:00:00 21/08/1988,,465.832
09:00:00 22/08/1988,,453.793
09:00:00 23/08/1988,,454.89
09:00:00 24/08/1988,,460.001
09:00:00 25/08/1988,,463.848
09:00:00 26/08/1988,,465.595
09:00:00 27/08/1988,,464.298
09:00:00 28/08/1988,,459.894
09:00:00 29/08/1988,,446.549
09:00:00 30/08/1988,,439.485
09:00:00 31/08/1988,,437.138
09:00:00 01/09/1988,,430.086
09:00:00 02/09/1988,,420.4
09:00:00 03/09/1988,,413.399
09:00:00 04/09/1988,,402.33
09:00:00 05/09/1988,,384.056
09:00:00 06/09/1988,,372.939
09:00:00 07/09/1988,,360.731
09:00:00 08/09/1988,,361.434
09:00:00 09/09/1988,,385.268
09:00:00 10/09/1988,,402.887
09:00:00 11/09/1988,,418.486
09:00:00 12/09/1988,,460.921
09:00:00 13/09/1988,,500.876
09:00:00 14/09/1988,,615.993
09:00:00 15/09/1988,,719.76
09:00:00 16/09/1988,,678.495
09:00:00 17/09/1988,,573.818
09:00:00 18/09/1988,,548.669
09:00:00 19/09/1988,,538.616
09:00:00 20/09/1988,,506.295
09:00:00 21/09/1988,,476.685
09:00:00 22/09/1988,,436.665
09:00:00 23/09/1988,,424.619
09:00:00 24/09/1988,,408.483
09:00:00 25/09/1988,,402.275
09:00:00 26/09/1988,,407.206
09:00:00 27/09/1988,,403.174
09:00:00 28/09/1988,,448.408
09:00:00 29/09/1988,,
09:00:00 30/09/1988,,
09:00:00 01/10/1988,,
09:00:00 02/10/1988,,
09:00:00 03/10/1988,,
09:00:00 04/10/1988,,
09:00:00 05/10/1988,,
09:00:00 06/10/1988,,
09:00:00 07/10/1988,,430.929
09:00:00 08/10/1988,,446.466
09:00:00 09/10/1988,,
09:00:00 10/10/1988,,413.162
09:00:00 11/10/1988,,405.464
09:00:00 12/10/1988,,
09:00:00 13/10/1988,,398.393
09:00:00 14/10/1988,,
09:00:00 15/10/1988,,
09:00:00 16/10/1988,,
09:00:00 17/10/1988,,
09:00:00 18/10/1988,,383.07
09:00:00 19/10/1988,,
09:00:00 20/10/1988,,
09:00:00 21/10/1988,,419.165
09:00:00 22/10/1988,,
09:00:00 23/10/1988,,455.833
09:00:00 24/10/1988,,457.827
09:00:00 25/10/1988,,
09:00:00 26/10/1988,,495.479
09:00:00 27/10/1988,,
09:00:00 28/10/1988,,489.044
09:00:00 29/10/1988,,
09:00:00 30/10/1988,,
09:00:00 31/10/1988,,
09:00:00 01/11/1988,,543.079
09:00:00 02/11/1988,,530.052
09:00:00 03/11/1988,,512.252
09:00:00 04/11/1988,,
09:00:00 05/11/1988,,
09:00:00 06/11/1988,,482.77
09:00:00 07/11/1988,,
09:00:00 08/11/1988,,473.219
09:00:00 09/11/1988,,467.449
09:00:00 10/11/1988,,
09:00:00 11/11/1988,,477.257
09:00:00 12/11/1988,,
09:00:00 13/11/1988,,475.368
09:00:00 14/11/1988,,470.343
09:00:00 15/11/1988,,472.814
09:00:00 16/11/1988,,482.886
09:00:00 17/11/1988,,
09:00:00 18/11/1988,,
09:00:00 19/11/1988,,
09:00:00 20/11/1988,,
09:00:00 21/11/1988,,
09:00:00 22/11/1988,,
09:00:00 23/11/1988,,
09:00:00 24/11/1988,,
09:00:00 25/11/1988,,
09:00:00 26/11/1988,,
09:00:00 27/11/1988,,
09:00:00 28/11/1988,,
09:00:00 29/11/1988,,
09:00:00 30/11/1988,,
09:00:00 01/12/1988,,
09:00:00 02/12/1988,,
09:00:00 03/12/1988,,
09:00:00 04/12/1988,,
09:00:00 05/12/1988,,
09:00:00 06/12/1988,,
09:00:00 07/12/1988,,
09:00:00 08/12/1988,,
09:00:00 09/12/1988,,
09:00:00 10/12/1988,,
09:00:00 11/12/1988,,
09:00:00 12/12/1988,,
09:00:00 13/12/1988,,
09:00:00 14/12/1988,,
09:00:00 15/12/1988,,
09:00:00 16/12/1988,,
09:00:00 17/12/1988,,
09:00:00 18/12/1988,,
09:00:00 19/12/1988,,
09:00:00 20/12/1988,,
09:00:00 21/12/1988,,
09:00:00 22/12/1988,,
09:00:00 23/12/1988,,
09:00:00 24/12/1988,,
09:00:00 25/12/1988,,
09:00:00 26/12/1988,,
09:00:00 27/12/1988,,
09:00:00 28/12/1988,,
09:00:00 29/12/1988,,
09:00:00 30/12/1988,,
09:00:00 31/12/1988,,
09:00:00 01/01/1989,,
09:00:00 02/01/1989,,
09:00:00 03/01/1989,,
09:00:00 04/01/1989,,
09:00:00 05/01/1989,,
09:00:00 06/01/1989,,
09:00:00 07/01/1989,,
09:00:00 08/01/1989,,
09:00:00 09/01/1989,,
09:00:00 10/01/1989,,
09:00:00 11/01/1989,,
09:00:00 12/01/1989,,530.073
09:00:00 13/01/1989,,486.99
09:00:00 14/01/1989,,462.094
09:00:00 15/01/1989,,449.375
09:00:00 16/01/1989,,440.146
09:00:00 17/01/1989,,439.813
09:00:00 18/01/1989,,447.01
09:00:00 19/01/1989,,456.177
09:00:00 20/01/1989,,459.781
09:00:00 21/01/1989,,466.76
09:00:00 22/01/1989,,467.029
09:00:00 23/01/1989,,458.554
09:00:00 24/01/1989,,438.177
09:00:00 25/01/1989,,428.375
09:00:00 26/01/1989,,438.802
09:00:00 27/01/1989,,443.167
09:00:00 28/01/1989,,441.594
09:00:00 29/01/1989,,443.438
09:00:00 30/01/1989,,441.896
09:00:00 31/01/1989,,446.104
09:00:00 01/02/1989,,447.052
09:00:00 02/02/1989,,446.479
09:00:00 03/02/1989,,446.25
09:00:00 04/02/1989,,437.198
09:00:00 05/02/1989,,438.365
09:00:00 06/02/1989,,434.75
09:00:00 07/02/1989,,427.302
09:00:00 08/02/1989,,428.177
09:00:00 09/02/1989,,422.729
09:00:00 10/02/1989,,422.677
09:00:00 11/02/1989,,439.406
09:00:00 12/02/1989,,435.521
09:00:00 13/02/1989,,435.094
09:00:00 14/02/1989,,440.354
09:00:00 15/02/1989,,446.063
09:00:00 16/02/1989,,449.948
09:00:00 17/02/1989,,455.073
09:00:00 18/02/1989,,458.229
09:00:00 19/02/1989,,453.146
09:00:00 20/02/1989,,455.813
09:00:00 21/02/1989,,459.25
09:00:00 22/02/1989,,451.875
09:00:00 23/02/1989,,448.167
09:00:00 24/02/1989,,445.656
09:00:00 25/02/1989,,447.531
09:00:00 26/02/1989,,454.802
09:00:00 27/02/1989,,460.083
09:00:00 28/02/1989,,465.427
09:00:00 01/03/1989,,468.927
09:00:00 02/03/1989,,468.698
09:00:00 03/03/1989,,467.815
09:00:00 04/03/1989,,469.331
09:00:00 05/03/1989,,468.719
09:00:00 06/03/1989,,468.354
09:00:00 07/03/1989,,472.354
09:00:00 08/03/1989,,472.125
09:00:00 09/03/1989,,471.26
09:00:00 10/03/1989,,471.899
09:00:00 11/03/1989,,470.569
09:00:00 12/03/1989,,475.479
09:00:00 13/03/1989,,477.469
09:00:00 14/03/1989,,481.74
09:00:00 15/03/1989,,480.929
09:00:00 16/03/1989,,483.685
09:00:00 17/03/1989,,487.781
09:00:00 18/03/1989,,486.354
09:00:00 19/03/1989,,486.99
09:00:00 20/03/1989,,489.781
09:00:00 21/03/1989,,497.167
09:00:00 22/03/1989,,502.688
09:00:00 23/03/1989,,505.844
09:00:00 24/03/1989,,510.208
09:00:00 25/03/1989,,520.344
09:00:00 26/03/1989,,531.323
09:00:00 27/03/1989,,524.073
09:00:00 28/03/1989,,522.292
09:00:00 29/03/1989,,523.448
09:00:00 30/03/1989,,518.135
09:00:00 31/03/1989,,515.915
09:00:00 01/04/1989,,517.773
09:00:00 02/04/1989,,525.792
09:00:00 03/04/1989,,521.854
09:00:00 04/04/1989,,523.469
09:00:00 05/04/1989,,521.927
09:00:00 06/04/1989,,522.031
09:00:00 07/04/1989,,526.615
09:00:00 08/04/1989,,527.49
09:00:00 09/04/1989,,526.135
09:00:00 10/04/1989,,528.542
09:00:00 11/04/1989,,516.417
09:00:00 12/04/1989,,514.638
09:00:00 13/04/1989,,520.831
09:00:00 14/04/1989,,523.073
09:00:00 15/04/1989,,522.177